Regional Weather Roundup
Issued by NWS State College, PA

Home | Current Version | Previous Version | Text Only | Print | Product List | Glossary Off
Versions: 1 2 3 4 5 6 7 8 9 10 11 12 13 14 15 16 17 18 19 20 21 22 23 24 25 26 27 28 29 30 31 32 33 34 35 36 37 38 39 40 41 42 43 44 45 46 47 48 49 50

000
ASUS41 KCTP 251703
RWRCTP

REGIONAL WEATHER ROUNDUP
NATIONAL WEATHER SERVICE STATE COLLEGE PA
1200 PM EST SUN JAN 25 2015

Note: "fair" indicates few or no clouds below 12,000 feet with no
significant weather and/or obstructions to visibility.

* = STATION THAT DOES NOT REPORT PRECIPITATION /E.G. RAIN...SNOW...ETC/
    THUNDER OR FOG.

PAZ002>004-007>009-013>016-020>023-029>032-251800-
WESTERN PENNSYLVANIA

CITY           SKY/WX    TMP DP  RH WIND       PRES   REMARKS
ERIE           CLOUDY    22  14  71 NE16      29.88F WCI   8
MEADVILLE      CLOUDY    24  17  74 N10       29.81S WCI  14
FRANKLIN*      CLOUDY    27  21  80 CALM      29.81S
NEW CASTLE     LGT SNOW  30  27  89 N6        29.84R FOG
BEAVER COUNTY  LGT RAIN  34  32  93 N5        29.81R VSB 1
BUTLER*        CLOUDY    34  32  93 SW3       29.82R VSB 3/4
PITTSBURGH INT LGT SNOW  34  32  92 W6        29.80S FOG
PITTSBURGH     CLOUDY    35  29  78 W6        29.79S HAZE
INDIANA*       FOG       34  34 100 SW5       29.82F VSB 1/2
LATROBE        CLOUDY    34  32  93 S7        29.82S FOG
WASHINGTON CO* CLOUDY    36  30  80 W5        29.81F
$$

PAZ004>006-010>012-017>019-024>028-033>037-041-042-045-046-049>053-251800-
CENTRAL PENNSYLVANIA

CITY           SKY/WX    TMP DP  RH WIND       PRES   REMARKS
BRADFORD       PTSUNNY   23  10  57 NW7       29.75F WCI  15
DUBOIS         CLOUDY    28  22  78 N6        29.76S
CLEARFIELD     CLOUDY    31  23  72 N5        29.78R
JOHNSTOWN      SNOW      31  29  92 W6        29.74F VSB<1/4
ALTOONA        CLOUDY    34  33  96 SW7       29.79S FOG
STATE COLLEGE  CLOUDY    34  30  86 W5        29.79R
WILLIAMSPORT   CLOUDY    37  19  48 N8        29.81R
SELINSGROVE    CLOUDY    38  28  67 VRB6      29.82R
FT INDIANTOWN  CLOUDY    37  30  75 SW10      29.81R
CAPITAL CITY   LGT RAIN  39  31  72 W5        29.83R
HARRISBURG     LGT RAIN  37  30  75 SW3       29.82S
YORK           CLOUDY    40  30  67 SW9       29.83R
$$

PAZ038>040-043-044-047-048-054-055-060>062-067>071-251800-
EASTERN PENNSYLVANIA

CITY           SKY/WX    TMP DP  RH WIND       PRES   REMARKS
SCRANTON       SUNNY     33  15  47 N10       29.78R
MOUNT POCONO   SUNNY     30  12  47 NW15G24   29.71R
ALLENTOWN      CLOUDY    39  27  62 W8        29.79R
QUAKERTOWN*    NOT AVBL
READING        CLOUDY    38  29  70 SW5       29.81R
LANCASTER      CLOUDY    38  30  73 W9        29.82R
COATESVILLE    PTSUNNY   41  32  70 W9        29.81F
POTTSTOWN      CLOUDY    40  29  64 W8        29.82R
BLUE BELL      PTSUNNY   43  32  65 W5        29.80S
DOYLESTOWN     CLOUDY    40  30  67 W8        29.79R
WILLOW GROVE   NOT AVBL
NORTH PHILA    CLOUDY    43  28  55 W8        29.83R
PHILADELPHIA   PTSUNNY   44  31  60 W14       29.83S
$$



USA.gov is the U.S. government's official web portal to all federal, state and local government web resources and services.